LAN437 SAME-SCEL

Flight info

Callsign LAN437
Flight time 0h 39m
Altitude 24000
Route UMKAL2G UMKAL UMKAL7C
Aircraft A321/M-SDE3FGHIRWY/LB1

Departure

Time 2026-05-05 15:16
Airport Governor Francisco Gabrielli International Airport (SAME)

Arrival

Time 2026-05-05 15:55
Airport Comodoro Arturo Merino Benítez International Airport (SCEL)
Time Latitude Longitude Altitude Speed Heading
2026-05-05 14:51 -32.82722 -68.79776 2338 ft 0 kts 271°
2026-05-05 15:06 -32.82722 -68.79759 2342 ft 4 kts 271°
2026-05-05 15:07 -32.82723 -68.79727 2343 ft 4 kts 271°
2026-05-05 15:07 -32.82723 -68.79706 2343 ft 4 kts 271°
2026-05-05 15:07 -32.82723 -68.79674 2314 ft 3 kts 271°
2026-05-05 15:07 -32.82723 -68.79669 2315 ft 1 kts 271°
2026-05-05 15:10 -32.82718 -68.79688 2318 ft 6 kts 300°
2026-05-05 15:10 -32.82674 -68.79685 2316 ft 10 kts 66°
2026-05-05 15:11 -32.82673 -68.79601 2316 ft 10 kts 85°
2026-05-05 15:11 -32.82654 -68.79530 2318 ft 8 kts 59°
2026-05-05 15:11 -32.82600 -68.79503 2316 ft 11 kts
2026-05-05 15:11 -32.82509 -68.79501 2316 ft 15 kts 360°
2026-05-05 15:12 -32.82402 -68.79499 2316 ft 15 kts
2026-05-05 15:12 -32.82304 -68.79497 2316 ft 13 kts
2026-05-05 15:12 -32.82219 -68.79494 2316 ft 12 kts
2026-05-05 15:12 -32.82143 -68.79493 2316 ft 10 kts
2026-05-05 15:13 -32.82074 -68.79491 2318 ft 9 kts
2026-05-05 15:13 -32.82014 -68.79490 2318 ft 8 kts
2026-05-05 15:13 -32.81964 -68.79482 2318 ft 6 kts 22°
2026-05-05 15:13 -32.81936 -68.79449 2319 ft 5 kts 60°
2026-05-05 15:14 -32.81932 -68.79401 2316 ft 8 kts 89°
2026-05-05 15:14 -32.81932 -68.79332 2315 ft 8 kts 90°
2026-05-05 15:14 -32.81948 -68.79273 2314 ft 7 kts 140°
2026-05-05 15:14 -32.81987 -68.79266 2315 ft 5 kts 180°
2026-05-05 15:15 -32.82066 -68.79269 2317 ft 33 kts 181°
2026-05-05 15:15 -32.82540 -68.79277 2320 ft 100 kts 180°
2026-05-05 15:15 -32.83415 -68.79292 2317 ft 149 kts 181°
2026-05-05 15:15 -32.84527 -68.79311 2686 ft 159 kts 180°
2026-05-05 15:16 -32.85647 -68.79333 3324 ft 161 kts 180°
2026-05-05 15:16 -32.86807 -68.79335 3683 ft 179 kts 178°
2026-05-05 15:16 -32.88138 -68.79347 3825 ft 202 kts 179°
2026-05-05 15:16 -32.89622 -68.79365 3968 ft 224 kts 179°
2026-05-05 15:17 -32.91229 -68.79058 4132 ft 247 kts 151°
2026-05-05 15:17 -32.92457 -68.77581 4578 ft 262 kts 115°
2026-05-05 15:17 -32.92954 -68.75477 5276 ft 269 kts 98°
2026-05-05 15:17 -32.93148 -68.73228 5988 ft 276 kts 94°
2026-05-05 15:18 -32.93292 -68.70917 6639 ft 284 kts 93°
2026-05-05 15:18 -32.93490 -68.68551 7282 ft 290 kts 96°
2026-05-05 15:18 -32.93764 -68.66182 7943 ft 295 kts 98°
2026-05-05 15:18 -32.94112 -68.63756 8588 ft 300 kts 99°
2026-05-05 15:19 -32.94511 -68.61298 9208 ft 305 kts 101°
2026-05-05 15:19 -32.94943 -68.58807 9819 ft 310 kts 101°
2026-05-05 15:19 -32.95395 -68.56271 10371 ft 315 kts 101°
2026-05-05 15:19 -32.95856 -68.53701 10956 ft 319 kts 101°
2026-05-05 15:20 -32.96318 -68.51093 11473 ft 327 kts 101°
2026-05-05 15:20 -32.96499 -68.48380 11955 ft 331 kts 79°
2026-05-05 15:20 -32.95753 -68.45819 12502 ft 328 kts 53°
2026-05-05 15:20 -32.94199 -68.43819 12734 ft 335 kts 28°
2026-05-05 15:21 -32.92043 -68.42779 12922 ft 338 kts
2026-05-05 15:21 -32.89722 -68.42897 13381 ft 333 kts 340°
2026-05-05 15:21 -32.87678 -68.44078 13932 ft 327 kts 317°
2026-05-05 15:21 -32.86079 -68.45989 14494 ft 326 kts 309°
2026-05-05 15:22 -32.84610 -68.48042 15097 ft 325 kts 302°
2026-05-05 15:22 -32.83522 -68.50389 15707 ft 325 kts 291°
2026-05-05 15:22 -32.82875 -68.52977 16180 ft 331 kts 280°
2026-05-05 15:22 -32.82722 -68.55722 16693 ft 336 kts 270°
2026-05-05 15:23 -32.82804 -68.58514 17284 ft 339 kts 270°
2026-05-05 15:23 -32.82877 -68.61328 17864 ft 342 kts 270°
2026-05-05 15:23 -32.82945 -68.64164 18416 ft 344 kts 270°
2026-05-05 15:23 -32.83011 -68.67017 18913 ft 347 kts 270°
2026-05-05 15:24 -32.83076 -68.69862 19396 ft 349 kts 270°
2026-05-05 15:24 -32.83141 -68.72758 19877 ft 352 kts 270°
2026-05-05 15:24 -32.83208 -68.75685 20359 ft 355 kts 270°
2026-05-05 15:24 -32.83275 -68.78631 20835 ft 358 kts 270°
2026-05-05 15:25 -32.83353 -68.81600 21307 ft 361 kts 270°
2026-05-05 15:25 -32.83455 -68.84591 21782 ft 364 kts 269°
2026-05-05 15:25 -32.83571 -68.87609 22251 ft 367 kts 269°
2026-05-05 15:25 -32.83692 -68.90659 22620 ft 371 kts 269°
2026-05-05 15:26 -32.83814 -68.93734 23042 ft 373 kts 269°
2026-05-05 15:26 -32.83932 -68.96826 23468 ft 376 kts 269°
2026-05-05 15:26 -32.84047 -68.99942 23844 ft 379 kts 269°
2026-05-05 15:26 -32.84157 -69.03082 24216 ft 381 kts 269°
2026-05-05 15:27 -32.84266 -69.06241 24616 ft 383 kts 269°
2026-05-05 15:27 -32.84375 -69.09416 24986 ft 386 kts 269°
2026-05-05 15:27 -32.84482 -69.12610 25360 ft 388 kts 269°
2026-05-05 15:27 -32.84589 -69.15831 25742 ft 390 kts 269°
2026-05-05 15:28 -32.84702 -69.19058 25926 ft 391 kts 269°
2026-05-05 15:28 -32.84842 -69.22253 25959 ft 383 kts 268°
2026-05-05 15:28 -32.84999 -69.25402 25966 ft 380 kts 268°
2026-05-05 15:28 -32.85159 -69.28532 25992 ft 380 kts 268°
2026-05-05 15:29 -32.85318 -69.31663 25991 ft 379 kts 268°
2026-05-05 15:29 -32.85469 -69.34788 25978 ft 378 kts 268°
2026-05-05 15:29 -32.85614 -69.37902 25984 ft 378 kts 269°
2026-05-05 15:29 -32.85755 -69.41025 26038 ft 378 kts 269°
2026-05-05 15:30 -32.85899 -69.44146 26037 ft 378 kts 269°
2026-05-05 15:30 -32.86044 -69.47271 26040 ft 378 kts 268°
2026-05-05 15:30 -32.86188 -69.50383 26020 ft 377 kts 269°
2026-05-05 15:30 -32.86333 -69.53500 26136 ft 377 kts 269°
2026-05-05 15:31 -32.86474 -69.56578 26095 ft 366 kts 269°
2026-05-05 15:31 -32.86609 -69.59576 26092 ft 362 kts 269°
2026-05-05 15:31 -32.86740 -69.62563 26095 ft 361 kts 269°
2026-05-05 15:31 -32.86869 -69.65537 26097 ft 360 kts 269°
2026-05-05 15:32 -32.86996 -69.68515 26146 ft 361 kts 269°
2026-05-05 15:32 -32.87122 -69.71486 26150 ft 360 kts 269°
2026-05-05 15:32 -32.87249 -69.74421 26149 ft 359 kts 269°
2026-05-05 15:32 -32.87380 -69.77390 26145 ft 359 kts 270°
2026-05-05 15:33 -32.87508 -69.80364 26185 ft 360 kts 270°
2026-05-05 15:33 -32.87635 -69.83347 26185 ft 360 kts 269°
2026-05-05 15:33 -32.87762 -69.86321 26180 ft 360 kts 269°
2026-05-05 15:33 -32.87888 -69.89287 26230 ft 360 kts 269°
2026-05-05 15:34 -32.88014 -69.92260 26221 ft 357 kts 270°
2026-05-05 15:34 -32.88138 -69.95198 26219 ft 354 kts 270°
2026-05-05 15:34 -32.88259 -69.98123 26217 ft 353 kts 270°
2026-05-05 15:34 -32.88378 -70.01029 26214 ft 352 kts 270°
2026-05-05 15:35 -32.88505 -70.03942 26209 ft 352 kts 270°
2026-05-05 15:35 -32.88636 -70.06845 26174 ft 351 kts 270°
2026-05-05 15:35 -32.88769 -70.09737 26160 ft 349 kts 269°
2026-05-05 15:35 -32.88899 -70.12631 26160 ft 351 kts 270°
2026-05-05 15:36 -32.89029 -70.15528 26146 ft 350 kts 269°
2026-05-05 15:36 -32.89157 -70.18418 26148 ft 350 kts 269°
2026-05-05 15:36 -32.89282 -70.21324 26113 ft 352 kts 270°
2026-05-05 15:36 -32.89406 -70.24228 26108 ft 351 kts 270°
2026-05-05 15:37 -32.89532 -70.27121 26109 ft 351 kts 270°
2026-05-05 15:37 -32.89655 -70.29988 26115 ft 352 kts 270°
2026-05-05 15:37 -32.89782 -70.32892 26108 ft 351 kts 270°
2026-05-05 15:37 -32.89908 -70.35794 26061 ft 352 kts 270°
2026-05-05 15:38 -32.90031 -70.38700 26056 ft 351 kts 270°
2026-05-05 15:38 -32.90154 -70.41621 26005 ft 357 kts 269°
2026-05-05 15:38 -32.90278 -70.44590 25387 ft 359 kts 270°
2026-05-05 15:38 -32.90402 -70.47534 24929 ft 353 kts 270°
2026-05-05 15:39 -32.90525 -70.50430 24527 ft 347 kts 270°
2026-05-05 15:39 -32.90644 -70.53286 24111 ft 343 kts 271°
2026-05-05 15:39 -32.90762 -70.56105 23654 ft 340 kts 271°
2026-05-05 15:39 -32.90888 -70.58910 23138 ft 337 kts 271°
2026-05-05 15:40 -32.91019 -70.61681 22654 ft 333 kts 271°
2026-05-05 15:40 -32.91151 -70.64414 22204 ft 329 kts 271°
2026-05-05 15:40 -32.91280 -70.67124 21753 ft 326 kts 271°
2026-05-05 15:40 -32.91405 -70.69810 21303 ft 323 kts 271°
2026-05-05 15:41 -32.91526 -70.72467 20856 ft 321 kts 271°
2026-05-05 15:41 -32.91646 -70.75120 20399 ft 320 kts 271°
2026-05-05 15:41 -32.92020 -70.77703 19954 ft 325 kts 257°
2026-05-05 15:41 -32.93025 -70.80150 19498 ft 335 kts 241°
2026-05-05 15:42 -32.94646 -70.82201 19018 ft 347 kts 224°
2026-05-05 15:42 -32.96778 -70.83634 18536 ft 358 kts 209°
2026-05-05 15:42 -32.99112 -70.84804 17990 ft 360 kts 210°
2026-05-05 15:42 -33.01381 -70.85954 17493 ft 358 kts 210°
2026-05-05 15:43 -33.03666 -70.87123 17037 ft 356 kts 210°
2026-05-05 15:43 -33.05963 -70.88303 16615 ft 354 kts 210°
2026-05-05 15:43 -33.08188 -70.89451 16191 ft 352 kts 210°
2026-05-05 15:43 -33.10432 -70.90611 15778 ft 351 kts 209°
2026-05-05 15:44 -33.12666 -70.91766 15374 ft 349 kts 209°
2026-05-05 15:44 -33.14888 -70.92918 14967 ft 348 kts 209°
2026-05-05 15:44 -33.17098 -70.94062 14559 ft 344 kts 209°
2026-05-05 15:44 -33.19300 -70.95150 14155 ft 343 kts 204°
2026-05-05 15:45 -33.21643 -70.95777 13747 ft 347 kts 190°
2026-05-05 15:45 -33.24066 -70.95787 13323 ft 350 kts 176°
2026-05-05 15:45 -33.26481 -70.95452 12884 ft 350 kts 176°
2026-05-05 15:45 -33.28899 -70.95126 12460 ft 350 kts 176°
2026-05-05 15:46 -33.31308 -70.94810 12029 ft 348 kts 176°
2026-05-05 15:46 -33.33705 -70.94503 11612 ft 346 kts 176°
2026-05-05 15:46 -33.36097 -70.94201 11189 ft 345 kts 176°
2026-05-05 15:46 -33.38487 -70.93900 10751 ft 346 kts 175°
2026-05-05 15:47 -33.40882 -70.93593 10332 ft 346 kts 175°
2026-05-05 15:47 -33.42459 -70.93386 10192 ft 340 kts 175°
2026-05-05 15:47 -33.45528 -70.92979 10013 ft 324 kts 175°
2026-05-05 15:47 -33.47738 -70.92688 9676 ft 321 kts 175°
2026-05-05 15:48 -33.49956 -70.92397 9166 ft 318 kts 175°
2026-05-05 15:48 -33.52141 -70.92110 8699 ft 313 kts 174°
2026-05-05 15:48 -33.54296 -70.91830 8254 ft 309 kts 174°
2026-05-05 15:48 -33.56406 -70.91466 7815 ft 305 kts 162°
2026-05-05 15:49 -33.58186 -70.90194 7367 ft 296 kts 129°
2026-05-05 15:49 -33.59146 -70.88129 6923 ft 284 kts 99°
2026-05-05 15:49 -33.59239 -70.85855 6481 ft 265 kts 84°
2026-05-05 15:49 -33.59150 -70.83697 6052 ft 253 kts 85°
2026-05-05 15:50 -33.59000 -70.81667 5672 ft 235 kts 72°
2026-05-05 15:50 -33.58193 -70.80081 5293 ft 218 kts 38°
2026-05-05 15:50 -33.56858 -70.79355 4983 ft 211 kts
2026-05-05 15:50 -33.55411 -70.79495 4670 ft 210 kts 352°
2026-05-05 15:51 -33.53969 -70.79640 4363 ft 204 kts 357°
2026-05-05 15:51 -33.52581 -70.79691 4053 ft 196 kts 358°
2026-05-05 15:51 -33.51233 -70.79727 3764 ft 191 kts 358°
2026-05-05 15:51 -33.49935 -70.79764 3489 ft 181 kts 356°
2026-05-05 15:52 -33.48742 -70.79804 3249 ft 165 kts 355°
2026-05-05 15:52 -33.47624 -70.79848 3027 ft 158 kts 355°
2026-05-05 15:52 -33.46541 -70.79897 2801 ft 154 kts 356°
2026-05-05 15:52 -33.45486 -70.79947 2590 ft 153 kts 355°
2026-05-05 15:53 -33.44428 -70.80000 2379 ft 149 kts 356°
2026-05-05 15:53 -33.43416 -70.80048 2167 ft 147 kts 357°
2026-05-05 15:53 -33.42397 -70.80099 1966 ft 143 kts 357°
2026-05-05 15:53 -33.41399 -70.80152 1783 ft 144 kts 358°
2026-05-05 15:54 -33.40412 -70.80202 1598 ft 143 kts 358°
2026-05-05 15:54 -33.39486 -70.80249 1571 ft 119 kts 357°
2026-05-05 15:54 -33.38871 -70.80283 1574 ft 66 kts 357°
2026-05-05 15:54 -33.38582 -70.80299 1574 ft 60 kts 357°
2026-05-05 15:55 -33.38194 -70.80321 1572 ft 52 kts 357°
2026-05-05 15:55 -33.37852 -70.80339 1573 ft 46 kts 357°
2026-05-05 15:55 -33.37549 -70.80355 1574 ft 41 kts 357°
2026-05-05 15:55 -33.37307 -70.80369 1573 ft 21 kts 357°
2026-05-05 15:56 -33.37190 -70.80374 1573 ft 16 kts
2026-05-05 15:56 -33.37111 -70.80314 1573 ft 13 kts 64°
2026-05-05 15:56 -33.37124 -70.80205 1568 ft 14 kts 126°
2026-05-05 15:56 -33.37206 -70.80168 1567 ft 12 kts 176°
2026-05-05 15:57 -33.37294 -70.80164 1567 ft 13 kts 178°
2026-05-05 15:57 -33.37386 -70.80161 1567 ft 14 kts 178°
2026-05-05 15:57 -33.37482 -70.80155 1567 ft 14 kts 177°
2026-05-05 15:57 -33.37593 -70.80150 1567 ft 20 kts 179°
2026-05-05 15:58 -33.37732 -70.80142 1566 ft 19 kts 177°
2026-05-05 15:58 -33.37856 -70.80136 1566 ft 19 kts 178°
2026-05-05 15:58 -33.38003 -70.80127 1566 ft 23 kts 175°
2026-05-05 15:58 -33.38172 -70.80118 1566 ft 25 kts 178°
2026-05-05 15:59 -33.38337 -70.80107 1566 ft 22 kts 176°
2026-05-05 15:59 -33.38473 -70.80101 1567 ft 18 kts 178°
2026-05-05 15:59 -33.38583 -70.80096 1567 ft 15 kts 177°
2026-05-05 15:59 -33.38700 -70.80090 1567 ft 19 kts 178°
2026-05-05 16:00 -33.38846 -70.80083 1567 ft 23 kts 180°
2026-05-05 16:00 -33.39003 -70.80074 1567 ft 21 kts 177°
2026-05-05 16:00 -33.39139 -70.80066 1566 ft 18 kts 176°
2026-05-05 16:00 -33.39251 -70.80058 1566 ft 14 kts 176°
2026-05-05 16:01 -33.39339 -70.80053 1566 ft 12 kts 177°
2026-05-05 16:01 -33.39437 -70.80048 1566 ft 16 kts 178°
2026-05-05 16:01 -33.39552 -70.80042 1566 ft 16 kts 177°
2026-05-05 16:01 -33.39648 -70.80036 1566 ft 12 kts 177°
2026-05-05 16:02 -33.39719 -70.80033 1566 ft 9 kts 177°
2026-05-05 16:02 -33.39809 -70.80027 1566 ft 17 kts 178°
2026-05-05 16:02 -33.39946 -70.80019 1566 ft 19 kts 178°
2026-05-05 16:02 -33.40066 -70.80010 1567 ft 15 kts 175°
2026-05-05 16:03 -33.40151 -70.79974 1566 ft 13 kts 124°
2026-05-05 16:03 -33.40103 -70.79902 1565 ft 15 kts
2026-05-05 16:03 -33.39986 -70.79910 1565 ft 18 kts 356°
2026-05-05 16:03 -33.39864 -70.79918 1565 ft 11 kts 10°
2026-05-05 16:04 -33.39836 -70.79857 1565 ft 8 kts 90°
2026-05-05 16:04 -33.39857 -70.79812 1565 ft 5 kts 147°
2026-05-05 16:04 -33.39891 -70.79803 1565 ft 6 kts 174°
2026-05-05 16:04 -33.39927 -70.79801 1565 ft 1 kts 177°
2026-05-05 16:05 -33.39931 -70.79801 1565 ft 2 kts 177°
2026-05-05 16:05 -33.39933 -70.79801 1565 ft 0 kts 178°
2026-05-05 16:05 -33.39933 -70.79800 1565 ft 0 kts 178°
2026-05-05 16:07 -33.39933 -70.79801 1565 ft 0 kts 178°
2026-05-05 16:07 -33.39933 -70.79800 1565 ft 0 kts 178°
2026-05-05 16:08 -33.39933 -70.79801 1565 ft 0 kts 178°
2026-05-05 16:08 -33.39933 -70.79800 1565 ft 0 kts 178°
2026-05-05 16:09 -33.39933 -70.79801 1565 ft 0 kts 178°
2026-05-05 16:10 -33.39933 -70.79800 1565 ft 0 kts 178°
2026-05-05 16:11 -33.39933 -70.79801 1565 ft 0 kts 178°
2026-05-05 16:22 -33.39932 -70.79801 1565 ft 0 kts 177°